Location: Poughquag
(41.6090°N, 73.6820°W)
Time: 20:14:58
(UTC-04:00)

STARLINK-1321 - Pass Details

Date: 29 May 2020
Orbit: 379 x 380 km, 53.0° (Epoch: 04 July)

Event Time Altitude Azimuth Distance (km) Brightness Sun altitude
Exits shadow 03:08:34 17° 304° (WNW) 1,066 5.1 -19.3°
Maximum altitude 03:09:49 21° 336° (NNW) 924 5.1 -19.1°
Drops below altitude 10° 03:12:17 10° 29° (NNE) 1,401 6.9 -18.9°
Sets 03:14:40 0° 46° (NE) 2,257 8.3 -18.6°
